Lapse_Rate
2.3 1.7 2.0 2.9 2.4 3.2 3.6 3.6 2.6 3.8 3.2 4.1 4.5 4.3 4.3 4.9 4.3 4.0 4.0 4.1 4.5 4.8
1.3 1.7 2.0 2.1 1.9 2.1 2.4 2.9 2.7 3.3 4.0 5.1 4.7 3.7 3.8 4.4 4.8 3.9 4.5 4.4 4.0 3.2
2.0 1.7 2.2 1.9 2.5 1.9 1.3 2.1 3.0 3.3 3.4 3.7 3.4 3.1 3.4 3.3 3.8 4.3 3.1 3.1 3.7 2.8
1.1 1.4 2.0 1.2 1.1 1.0 0.6 0.9 1.6 2.3 3.0 2.9 2.9 2.6 2.6 2.1 1.6 1.9 2.2 2.1 1.9 1.5
0.4 0.7 0.6 0.4 0.5 0.6 1.2 1.2 1.2 1.9 1.6 1.0 1.5 1.7 2.7 2.4 2.0 1.6 0.9 0.3 -0.1 0.2
0.1 -0.8 -0.0 -0.0 1.0 2.0 1.5 0.9 1.7 1.9 1.5 1.6 1.5 1.5 1.2 1.0 0.8 0.6 0.3 0.2 0.1 0.3
-0.6 -0.1 0.3 1.2 0.7 1.6 1.5 1.1 0.6 0.6 0.6 0.8 0.8 0.7 0.7 0.5 0.5 0.3 0.1 0.3 0.6 0.7
-0.8 -0.4 0.2 -0.0 0.9 0.7 0.8 0.8 0.7 0.5 0.4 0.5 0.5 0.5 0.1 0.7 0.6 0.7 0.9 0.6 0.5 0.5
0.4 0.5 0.2 0.3 0.7 0.9 0.7 0.6 0.4 0.1 0.2 -0.0 0.2 0.6 1.0 1.4 1.1 1.4 1.5 1.3 1.4 2.1
1.0 0.8 0.5 0.7 1.0 0.9 0.2 -0.1 -0.6 -0.3 -0.3 -0.6 -0.5 1.0 1.4 0.6 -0.6 -0.5 0.1 1.3 1.9 2.4
0.9 0.9 0.8 0.8 0.4 -0.2 -0.6 -0.7 -1.0 -0.9 -1.0 -0.9 -0.5 1.1 1.1 1.1 -0.3 0.3 0.8 1.4 1.7 1.9
1.0 0.6 0.3 -0.1 -0.8 -0.9 -1.3 -1.6 -1.8 -1.5 -0.9 -1.0 0.3 1.4 1.4 0.3 -0.1 0.1 -0.0 0.6 1.4 1.9
0.9 0.6 0.3 -0.2 -0.9 -1.0 -1.2 -0.9 -0.7 -0.6 -1.5 -0.5 -0.0 1.8 2.0 1.0 0.1 0.4 0.6 1.4 2.1 2.8
0.5 0.4 0.2 -0.5 -0.7 -0.4 -0.3 -0.3 -0.5 -0.7 -0.8 -0.6 -0.7 1.2 2.5 2.4 1.1 1.6 1.5 1.4 1.7 2.0
Wind_Speed
7 4 5 7 4 5 5 6 8 7 8 6 9 6 4 3 3 4 4 6 6 7
6 7 6 5 5 6 4 3 6 7 6 8 10 6 6 5 7 5 6 7 8 7
6 6 6 6 8 5 5 6 5 6 8 6 6 6 5 4 5 6 3 4 7 7
5 6 4 4 5 3 4 5 4 6 5 4 2 2 2 3 3 2 3 3 3 4
7 6 5 5 5 5 4 3 4 2 2 5 4 3 2 1 1 2 4 5 4 4
6 7 5 5 5 4 5 5 4 5 4 4 3 3 2 1 1 3 3 4 4 4
6 6 6 5 6 5 5 5 5 5 5 4 3 3 2 1 1 1 1 3 3 4
6 7 5 6 5 5 5 4 4 5 4 4 3 2 2 0 2 3 1 2 2 3
6 6 6 6 5 5 5 4 4 4 3 3 2 3 2 1 3 3 4 3 0 1
6 6 6 6 6 6 5 4 4 4 4 4 2 1 1 3 0 1 2 3 3 2
6 6 5 5 5 4 3 4 4 3 3 2 1 2 2 2 1 2 2 3 4 3
6 6 6 5 5 3 3 2 1 2 1 1 1 1 1 3 1 1 2 3 2 4
6 6 6 6 5 3 2 3 1 1 3 5 4 5 6 4 2 3 2 2 3 5
5 6 5 5 3 3 3 3 3 3 3 4 4 4 7 7 3 3 3 3 2 2
Wind_Direction
149 146 161 175 170 190 195 192 160 180 177 204 232 222 197 241 238 231 233 239 246 255
163 164 185 199 199 205 193 198 162 175 196 222 229 191 205 220 256 231 216 217 226 232
180 187 197 186 214 215 164 157 158 212 217 212 212 203 213 221 232 223 216 218 222 221
136 134 148 154 143 119 111 118 173 185 198 203 202 94 148 193 169 235 251 249 279 289
135 136 149 140 135 122 127 109 132 152 186 113 98 54 27 334 325 286 279 280 284 268
142 136 120 116 127 119 119 116 129 136 118 107 99 114 96 56 327 303 291 286 269 267
121 121 129 138 117 137 138 129 123 120 109 105 113 90 92 97 232 243 290 298 291 269
108 114 118 106 113 115 111 115 122 103 93 92 88 69 75 174 214 227 226 22 6 357
119 125 124 122 140 127 122 120 104 93 117 119 97 48 358 232 200 208 198 198 200 356
138 137 141 147 154 150 143 124 116 119 130 131 142 92 64 18 215 158 176 184 184 162
148 151 156 157 152 124 115 133 143 147 125 120 43 38 61 21 293 216 183 175 175 158
169 166 164 153 147 136 121 93 79 66 68 95 267 219 191 99 219 162 167 149 142 136
169 167 171 165 162 151 136 145 115 243 256 222 213 222 188 180 158 182 172 167 155 168
157 164 164 160 150 145 148 148 182 218 241 253 216 235 206 205 187 192 179 170 188 191